Time,TemperatureF,DewpointF,PressureIn,WindDirection,WindDirectionDegrees,WindSpeedMPH,WindSpeedGustMPH,Humidity,HourlyPrecipIn,Conditions,Clouds,dailyrainin,SoftwareType,DateUTC
2013-07-25 00:01:00,71.6,30.8,29.77,NW,316,3.1,3.1,22,0.00,,---,0.00,VWS V14.01,2013-07-25 04:01:00,
2013-07-25 00:07:00,71.4,30.6,29.77,NW,321,2.2,4.0,22,0.00,,---,0.00,VWS V14.01,2013-07-25 04:07:00,
2013-07-25 00:12:00,71.1,26.8,29.77,NW,304,0.0,5.8,19,0.00,,---,0.00,VWS V14.01,2013-07-25 04:12:00,
2013-07-25 00:17:00,71.1,26.8,29.77,NNW,333,0.0,0.0,19,0.00,,---,0.00,VWS V14.01,2013-07-25 04:17:00,
2013-07-25 00:22:00,70.9,30.2,29.77,North,353,0.0,0.0,22,0.00,,---,0.00,VWS V14.01,2013-07-25 04:22:00,
2013-07-25 00:27:00,70.9,26.6,29.77,NNW,333,0.0,4.0,19,0.00,,---,0.00,VWS V14.01,2013-07-25 04:27:00,
2013-07-25 00:32:00,70.7,30.0,29.77,NNW,334,2.2,2.2,22,0.00,,---,0.00,VWS V14.01,2013-07-25 04:32:00,
2013-07-25 00:37:00,70.5,26.3,29.77,NNW,334,0.0,0.0,19,0.00,,---,0.00,VWS V14.01,2013-07-25 04:37:00,
2013-07-25 00:42:00,70.5,29.9,29.77,NNW,334,0.0,0.0,22,0.00,,---,0.00,VWS V14.01,2013-07-25 04:42:00,
2013-07-25 00:47:00,70.0,25.9,29.77,West,267,2.7,2.7,19,0.00,,---,0.00,VWS V14.01,2013-07-25 04:47:00,
2013-07-25 00:52:00,70.0,23.2,29.77,NNW,338,0.0,0.0,17,0.00,,---,0.00,VWS V14.01,2013-07-25 04:52:00,
2013-07-25 00:57:00,69.6,22.9,29.77,WSW,239,3.1,3.1,17,0.00,,---,0.00,VWS V14.01,2013-07-25 04:57:00,
2013-07-25 01:02:00,69.4,22.8,29.77,NW,310,2.7,2.7,17,0.00,,---,0.00,VWS V14.01,2013-07-25 05:02:00,
2013-07-25 01:07:00,69.3,22.6,29.77,NNW,334,2.7,2.7,17,0.00,,---,0.00,VWS V14.01,2013-07-25 05:07:00,
2013-07-25 01:12:00,69.1,22.5,29.77,NW,315,4.0,4.0,17,0.00,,---,0.00,VWS V14.01,2013-07-25 05:12:00,
2013-07-25 01:17:00,68.9,19.4,29.77,NE,44,0.0,0.0,15,0.00,,---,0.00,VWS V14.01,2013-07-25 05:17:00,
2013-07-25 01:22:00,68.7,22.2,29.77,NE,44,0.0,0.0,17,0.00,,---,0.00,VWS V14.01,2013-07-25 05:22:00,
2013-07-25 01:27:00,68.7,26.1,29.77,NNW,332,3.1,3.1,20,0.00,,---,0.00,VWS V14.01,2013-07-25 05:27:00,
2013-07-25 01:32:00,68.4,25.8,29.77,NW,308,2.7,2.7,20,0.00,,---,0.00,VWS V14.01,2013-07-25 05:32:00,
2013-07-25 01:37:00,68.2,25.6,29.77,WSW,256,3.1,3.1,20,0.00,,---,0.00,VWS V14.01,2013-07-25 05:37:00,
2013-07-25 01:42:00,68.0,21.6,29.77,WNW,288,3.6,3.6,17,0.00,,---,0.00,VWS V14.01,2013-07-25 05:42:00,
2013-07-25 01:47:00,67.8,25.3,29.77,NNW,328,0.0,2.2,20,0.00,,---,0.00,VWS V14.01,2013-07-25 05:47:00,
2013-07-25 01:52:00,67.8,25.3,29.77,NW,326,0.0,0.0,20,0.00,,---,0.00,VWS V14.01,2013-07-25 05:52:00,
2013-07-25 01:57:00,67.5,21.2,29.77,North,350,0.0,0.0,17,0.00,,---,0.00,VWS V14.01,2013-07-25 05:57:00,
2013-07-25 02:02:00,67.5,25.0,29.77,NW,324,2.2,2.2,20,0.00,,---,0.00,VWS V14.01,2013-07-25 06:02:00,
2013-07-25 02:07:00,67.3,24.9,29.74,NW,317,0.0,0.0,20,0.00,,---,0.00,VWS V14.01,2013-07-25 06:07:00,
2013-07-25 02:12:00,67.3,21.0,29.74,WNW,295,0.0,0.0,17,0.00,,---,0.00,VWS V14.01,2013-07-25 06:12:00,
2013-07-25 02:17:00,67.1,24.7,29.74,WSW,238,2.2,2.7,20,0.00,,---,0.00,VWS V14.01,2013-07-25 06:17:00,
2013-07-25 02:22:00,66.9,24.6,29.77,NW,308,0.0,0.0,20,0.00,,---,0.00,VWS V14.01,2013-07-25 06:22:00,
2013-07-25 02:27:00,66.7,24.4,29.77,NW,308,0.0,0.0,20,0.00,,---,0.00,VWS V14.01,2013-07-25 06:27:00,
2013-07-25 02:32:00,66.6,24.3,29.77,NW,313,2.7,2.7,20,0.00,,---,0.00,VWS V14.01,2013-07-25 06:32:00,
2013-07-25 02:37:00,66.4,26.4,29.77,WNW,301,0.0,2.2,22,0.00,,---,0.00,VWS V14.01,2013-07-25 06:37:00,
2013-07-25 02:42:00,66.4,24.1,29.77,NW,319,0.0,0.0,20,0.00,,---,0.00,VWS V14.01,2013-07-25 06:42:00,
2013-07-25 02:47:00,66.4,24.1,29.77,NNW,338,0.0,0.0,20,0.00,,---,0.00,VWS V14.01,2013-07-25 06:47:00,
2013-07-25 02:52:00,66.4,26.4,29.77,NW,311,0.0,0.0,22,0.00,,---,0.00,VWS V14.01,2013-07-25 06:52:00,
2013-07-25 02:57:00,66.2,26.3,29.77,NW,317,2.2,2.2,22,0.00,,---,0.00,VWS V14.01,2013-07-25 06:57:00,
2013-07-25 03:02:00,66.0,23.8,29.77,NW,307,0.0,2.7,20,0.00,,---,0.00,VWS V14.01,2013-07-25 07:02:00,
2013-07-25 03:07:00,66.0,23.8,29.77,NW,324,0.0,0.0,20,0.00,,---,0.00,VWS V14.01,2013-07-25 07:07:00,
2013-07-25 03:12:00,66.0,27.2,29.77,NW,319,2.7,4.5,23,0.00,,---,0.00,VWS V14.01,2013-07-25 07:12:00,
2013-07-25 03:17:00,66.0,27.2,29.77,NNW,328,2.2,3.6,23,0.00,,---,0.00,VWS V14.01,2013-07-25 07:17:00,
2013-07-25 03:22:00,65.8,27.0,29.77,NNW,327,0.0,2.2,23,0.00,,---,0.00,VWS V14.01,2013-07-25 07:22:00,
2013-07-25 03:27:00,65.8,27.0,29.77,WNW,299,3.1,3.1,23,0.00,,---,0.00,VWS V14.01,2013-07-25 07:27:00,
2013-07-25 03:32:00,65.8,23.7,29.77,NNW,329,0.0,2.7,20,0.00,,---,0.00,VWS V14.01,2013-07-25 07:32:00,
2013-07-25 03:37:00,65.8,27.0,29.77,SW,234,0.0,2.2,23,0.00,,---,0.00,VWS V14.01,2013-07-25 07:37:00,
2013-07-25 03:42:00,65.8,27.0,29.77,SW,234,0.0,0.0,23,0.00,,---,0.00,VWS V14.01,2013-07-25 07:42:00,
2013-07-25 03:47:00,66.0,27.2,29.77,NW,325,3.1,3.1,23,0.00,,---,0.00,VWS V14.01,2013-07-25 07:47:00,
2013-07-25 03:52:00,65.8,27.0,29.77,NW,324,3.6,4.9,23,0.00,,---,0.00,VWS V14.01,2013-07-25 07:52:00,
2013-07-25 03:57:00,65.8,27.0,29.77,WSW,257,0.0,0.0,23,0.00,,---,0.00,VWS V14.01,2013-07-25 07:57:00,
2013-07-25 04:02:00,65.7,23.5,29.77,North,357,2.7,4.0,20,0.00,,---,0.00,VWS V14.01,2013-07-25 08:02:00,
2013-07-25 04:07:00,65.7,23.5,29.77,NE,37,2.7,4.9,20,0.00,,---,0.00,VWS V14.01,2013-07-25 08:07:00,
2013-07-25 04:12:00,65.8,27.0,29.77,NW,314,2.7,4.0,23,0.00,,---,0.00,VWS V14.01,2013-07-25 08:12:00,
2013-07-25 04:17:00,65.7,21.0,29.77,NW,317,3.1,3.6,18,0.00,,---,0.00,VWS V14.01,2013-07-25 08:17:00,
2013-07-25 04:22:00,65.7,23.5,29.77,WSW,242,0.0,3.1,20,0.00,,---,0.00,VWS V14.01,2013-07-25 08:22:00,
2013-07-25 04:27:00,65.7,23.5,29.77,NNW,332,2.7,4.0,20,0.00,,---,0.00,VWS V14.01,2013-07-25 08:27:00,
2013-07-25 04:33:00,65.7,26.9,29.77,North,350,2.7,3.1,23,0.00,,---,0.00,VWS V14.01,2013-07-25 08:33:00,
2013-07-25 04:38:00,65.7,23.5,29.77,WSW,240,2.7,3.6,20,0.00,,---,0.00,VWS V14.01,2013-07-25 08:38:00,
2013-07-25 04:43:00,65.5,23.4,29.77,NW,316,0.0,5.4,20,0.00,,---,0.00,VWS V14.01,2013-07-25 08:43:00,
2013-07-25 04:48:00,65.5,26.7,29.77,NNW,329,0.0,3.1,23,0.00,,---,0.00,VWS V14.01,2013-07-25 08:48:00,
2013-07-25 04:53:00,65.5,26.7,29.77,NW,314,0.0,0.0,23,0.00,,---,0.00,VWS V14.01,2013-07-25 08:53:00,
2013-07-25 04:58:00,65.5,26.7,29.77,NNW,328,0.0,2.7,23,0.00,,---,0.00,VWS V14.01,2013-07-25 08:58:00,
2013-07-25 05:03:00,65.3,26.6,29.77,West,270,0.0,0.0,23,0.00,,---,0.00,VWS V14.01,2013-07-25 09:03:00,
2013-07-25 05:08:00,65.1,26.4,29.77,NW,320,3.1,3.1,23,0.00,,---,0.00,VWS V14.01,2013-07-25 09:08:00,
2013-07-25 05:13:00,65.1,26.4,29.77,NW,315,3.1,3.1,23,0.00,,---,0.00,VWS V14.01,2013-07-25 09:13:00,
2013-07-25 05:18:00,65.1,26.4,29.77,NW,320,0.0,0.0,23,0.00,,---,0.00,VWS V14.01,2013-07-25 09:18:00,
2013-07-25 05:23:00,64.9,26.3,29.77,NW,324,2.2,2.7,23,0.00,,---,0.00,VWS V14.01,2013-07-25 09:23:00,
2013-07-25 05:28:00,64.9,26.3,29.77,NW,324,0.0,0.0,23,0.00,,---,0.00,VWS V14.01,2013-07-25 09:28:00,
2013-07-25 05:33:00,64.9,26.3,29.77,NW,324,0.0,0.0,23,0.00,,---,0.00,VWS V14.01,2013-07-25 09:33:00,
2013-07-25 05:38:00,64.9,26.3,29.77,NNW,340,0.0,4.0,23,0.00,,---,0.00,VWS V14.01,2013-07-25 09:38:00,
2013-07-25 05:43:00,64.8,26.1,29.77,SW,236,0.0,3.1,23,0.00,,---,0.00,VWS V14.01,2013-07-25 09:43:00,
2013-07-25 05:48:00,64.8,26.1,29.77,SW,233,0.0,0.0,23,0.00,,---,0.00,VWS V14.01,2013-07-25 09:48:00,
2013-07-25 05:53:00,64.8,26.1,29.77,NNW,329,2.7,2.7,23,0.00,,---,0.00,VWS V14.01,2013-07-25 09:53:00,
2013-07-25 05:58:00,64.8,27.2,29.77,SW,232,0.0,0.0,24,0.00,,---,0.00,VWS V14.01,2013-07-25 09:58:00,
2013-07-25 06:03:00,64.6,26.0,29.77,SSW,207,2.2,2.2,23,0.00,,---,0.00,VWS V14.01,2013-07-25 10:03:00,
2013-07-25 06:08:00,64.6,27.0,29.77,North,2,0.0,0.0,24,0.00,,---,0.00,VWS V14.01,2013-07-25 10:08:00,
2013-07-25 06:13:00,64.8,27.2,29.77,WSW,242,3.1,3.1,24,0.00,,---,0.00,VWS V14.01,2013-07-25 10:13:00,
2013-07-25 06:18:00,64.6,27.0,29.77,NW,314,2.2,2.7,24,0.00,,---,0.00,VWS V14.01,2013-07-25 10:18:00,
2013-07-25 06:23:00,64.6,27.0,29.77,NW,318,0.0,0.0,24,0.00,,---,0.00,VWS V14.01,2013-07-25 10:23:00,
2013-07-25 06:28:00,64.6,27.0,29.77,NW,308,2.2,2.2,24,0.00,,---,0.00,VWS V14.01,2013-07-25 10:28:00,
2013-07-25 06:33:00,64.6,26.0,29.77,West,277,0.0,0.0,23,0.00,,---,0.00,VWS V14.01,2013-07-25 10:33:00,
2013-07-25 06:38:00,64.8,26.1,29.80,NNW,336,0.0,2.2,23,0.00,,---,0.00,VWS V14.01,2013-07-25 10:38:00,
2013-07-25 06:43:00,64.9,27.3,29.80,NNW,336,0.0,0.0,24,0.00,,---,0.00,VWS V14.01,2013-07-25 10:43:00,
2013-07-25 06:48:00,64.9,27.3,29.80,North,353,0.0,0.0,24,0.00,,---,0.00,VWS V14.01,2013-07-25 10:48:00,
2013-07-25 06:53:00,64.8,27.2,29.80,NNW,345,3.1,3.1,24,0.00,,---,0.00,VWS V14.01,2013-07-25 10:53:00,
2013-07-25 06:58:00,64.8,27.2,29.80,NNW,343,0.0,2.2,24,0.00,,---,0.00,VWS V14.01,2013-07-25 10:58:00,
2013-07-25 07:03:00,64.9,28.3,29.80,NW,318,2.2,2.2,25,0.00,,---,0.00,VWS V14.01,2013-07-25 11:03:00,
2013-07-25 07:08:00,64.9,27.3,29.80,WNW,303,0.0,0.0,24,0.00,,---,0.00,VWS V14.01,2013-07-25 11:08:00,
2013-07-25 07:13:00,64.8,27.2,29.80,WSW,255,0.0,2.2,24,0.00,,---,0.00,VWS V14.01,2013-07-25 11:13:00,
2013-07-25 07:18:00,64.8,27.2,29.80,NNE,33,0.0,2.2,24,0.00,,---,0.00,VWS V14.01,2013-07-25 11:18:00,
2013-07-25 07:23:00,64.9,28.3,29.80,NNE,33,0.0,0.0,25,0.00,,---,0.00,VWS V14.01,2013-07-25 11:23:00,
2013-07-25 07:28:00,64.8,28.1,29.80,NW,311,0.0,2.7,25,0.00,,---,0.00,VWS V14.01,2013-07-25 11:28:00,
2013-07-25 07:33:00,64.8,28.1,29.80,NW,316,0.0,0.0,25,0.00,,---,0.00,VWS V14.01,2013-07-25 11:33:00,
2013-07-25 07:38:00,64.9,28.3,29.80,NNW,340,3.6,3.6,25,0.00,,---,0.00,VWS V14.01,2013-07-25 11:38:00,
2013-07-25 07:43:00,65.1,29.4,29.80,West,259,0.0,3.1,26,0.00,,---,0.00,VWS V14.01,2013-07-25 11:43:00,
2013-07-25 07:48:00,65.1,29.4,29.80,North,10,2.2,3.1,26,0.00,,---,0.00,VWS V14.01,2013-07-25 11:48:00,
2013-07-25 07:53:00,65.1,29.4,29.80,NW,326,0.0,2.7,26,0.00,,---,0.00,VWS V14.01,2013-07-25 11:53:00,
2013-07-25 07:58:00,65.1,29.4,29.80,ENE,67,2.2,2.2,26,0.00,,---,0.00,VWS V14.01,2013-07-25 11:58:00,
2013-07-25 08:03:00,65.1,28.5,29.80,NW,307,0.0,2.7,25,0.00,,---,0.00,VWS V14.01,2013-07-25 12:03:00,
2013-07-25 08:08:00,65.1,29.4,29.80,NW,326,0.0,0.0,26,0.00,,---,0.00,VWS V14.01,2013-07-25 12:08:00,
2013-07-25 08:13:00,64.9,30.2,29.80,WSW,251,2.7,2.7,27,0.00,,---,0.00,VWS V14.01,2013-07-25 12:13:00,
2013-07-25 08:18:00,64.9,31.1,29.80,West,268,2.7,2.7,28,0.00,,---,0.00,VWS V14.01,2013-07-25 12:18:00,
2013-07-25 08:23:00,64.9,32.8,29.80,WSW,247,2.2,2.7,30,0.00,,---,0.00,VWS V14.01,2013-07-25 12:23:00,
2013-07-25 08:28:00,64.9,32.8,29.80,WSW,241,0.0,0.0,30,0.00,,---,0.00,VWS V14.01,2013-07-25 12:28:00,
2013-07-25 08:33:00,65.1,33.8,29.80,NNE,28,0.0,0.0,31,0.00,,---,0.00,VWS V14.01,2013-07-25 12:33:00,
2013-07-25 08:38:00,65.1,32.1,29.80,North,357,0.0,2.2,29,0.00,,---,0.00,VWS V14.01,2013-07-25 12:38:00,
2013-07-25 08:43:00,65.3,33.9,29.80,WNW,301,0.0,0.0,31,0.00,,---,0.00,VWS V14.01,2013-07-25 12:43:00,
2013-07-25 08:48:00,65.3,34.7,29.80,NNE,26,2.2,3.6,32,0.00,,---,0.00,VWS V14.01,2013-07-25 12:48:00,
2013-07-25 08:53:00,65.3,35.5,29.80,NW,316,0.0,0.0,33,0.00,,---,0.00,VWS V14.01,2013-07-25 12:53:00,
2013-07-25 08:58:00,65.3,36.2,29.80,WNW,303,0.0,0.0,34,0.00,,---,0.00,VWS V14.01,2013-07-25 12:58:00,
2013-07-25 09:03:00,65.1,36.1,29.80,WNW,302,0.0,0.0,34,0.00,,---,0.00,VWS V14.01,2013-07-25 13:03:00,
2013-07-25 09:08:00,65.1,37.5,29.80,WNW,294,0.0,0.0,36,0.00,,---,0.00,VWS V14.01,2013-07-25 13:08:00,
2013-07-25 09:13:00,65.1,38.9,29.80,NNW,334,2.2,4.0,38,0.00,,---,0.00,VWS V14.01,2013-07-25 13:13:00,
2013-07-25 09:18:00,65.1,39.6,29.80,NNW,329,0.0,0.0,39,0.00,,---,0.00,VWS V14.01,2013-07-25 13:18:00,
2013-07-25 09:24:00,65.3,39.7,29.80,NNW,343,2.2,3.1,39,0.00,,---,0.00,VWS V14.01,2013-07-25 13:24:00,
2013-07-25 09:28:00,65.5,39.2,29.80,NNW,330,0.0,3.6,38,0.00,,---,0.00,VWS V14.01,2013-07-25 13:28:00,
2013-07-25 09:33:00,65.7,39.4,29.80,WSW,246,0.0,0.0,38,0.00,,---,0.00,VWS V14.01,2013-07-25 13:33:00,
2013-07-25 09:39:00,65.7,38.7,29.83,NNE,22,0.0,0.0,37,0.00,,---,0.00,VWS V14.01,2013-07-25 13:39:00,
2013-07-25 09:44:00,66.0,40.4,29.83,SW,236,0.0,3.6,39,0.00,,---,0.00,VWS V14.01,2013-07-25 13:44:00,
2013-07-25 09:49:00,66.2,39.2,29.83,WSW,241,2.2,2.7,37,0.00,,---,0.00,VWS V14.01,2013-07-25 13:49:00,
2013-07-25 09:54:00,66.4,39.3,29.83,WNW,297,0.0,0.0,37,0.00,,---,0.00,VWS V14.01,2013-07-25 13:54:00,
2013-07-25 09:59:00,66.6,38.8,29.83,NW,322,2.2,3.6,36,0.00,,---,0.00,VWS V14.01,2013-07-25 13:59:00,
2013-07-25 10:04:00,66.7,39.7,29.83,NNW,336,2.7,4.9,37,0.00,,---,0.00,VWS V14.01,2013-07-25 14:04:00,
2013-07-25 10:09:00,66.9,39.1,29.83,NNE,28,3.1,3.1,36,0.00,,---,0.00,VWS V14.01,2013-07-25 14:09:00,
2013-07-25 10:14:00,67.1,38.6,29.83,NW,304,0.0,0.0,35,0.00,,---,0.00,VWS V14.01,2013-07-25 14:14:00,
2013-07-25 10:19:00,67.1,38.6,29.83,NW,324,4.9,5.8,35,0.00,,---,0.00,VWS V14.01,2013-07-25 14:19:00,
2013-07-25 10:24:00,67.3,38.0,29.83,NW,306,2.7,2.7,34,0.00,,---,0.00,VWS V14.01,2013-07-25 14:24:00,
2013-07-25 10:29:00,67.5,39.6,29.83,NNE,19,0.0,2.7,36,0.00,,---,0.00,VWS V14.01,2013-07-25 14:29:00,
2013-07-25 10:34:00,67.6,39.0,29.83,West,271,3.1,4.0,35,0.00,,---,0.00,VWS V14.01,2013-07-25 14:34:00,
2013-07-25 10:39:00,67.8,39.2,29.83,West,267,2.7,4.0,35,0.00,,---,0.00,VWS V14.01,2013-07-25 14:39:00,
2013-07-25 10:44:00,67.8,39.2,29.83,NW,321,3.1,8.1,35,0.00,,---,0.00,VWS V14.01,2013-07-25 14:44:00,
2013-07-25 10:49:00,68.2,39.5,29.83,NW,324,2.7,8.1,35,0.00,,---,0.00,VWS V14.01,2013-07-25 14:49:00,
2013-07-25 10:54:00,68.4,40.4,29.83,WNW,298,2.7,3.1,36,0.00,,---,0.00,VWS V14.01,2013-07-25 14:54:00,
2013-07-25 10:59:00,68.5,39.1,29.83,NNE,32,4.9,5.4,34,0.00,,---,0.00,VWS V14.01,2013-07-25 14:59:00,
2013-07-25 11:04:00,68.5,39.1,29.83,WSW,247,7.6,7.6,34,0.00,,---,0.00,VWS V14.01,2013-07-25 15:04:00,
2013-07-25 11:09:00,68.5,37.5,29.83,North,357,10.1,10.1,32,0.00,,---,0.00,VWS V14.01,2013-07-25 15:09:00,
2013-07-25 11:14:00,68.7,38.5,29.83,NW,312,2.2,3.1,33,0.00,,---,0.00,VWS V14.01,2013-07-25 15:14:00,
2013-07-25 11:19:00,68.9,39.4,29.83,SE,128,3.6,4.0,34,0.00,,---,0.00,VWS V14.01,2013-07-25 15:19:00,
2013-07-25 11:24:00,68.9,38.6,29.83,WNW,287,3.1,4.0,33,0.00,,---,0.00,VWS V14.01,2013-07-25 15:24:00,
2013-07-25 11:29:00,68.7,38.5,29.83,NNW,341,5.4,5.4,33,0.00,,---,0.00,VWS V14.01,2013-07-25 15:29:00,
2013-07-25 11:34:00,68.5,37.5,29.83,NW,311,3.1,5.8,32,0.00,,---,0.00,VWS V14.01,2013-07-25 15:34:00,
2013-07-25 11:39:00,68.2,33.9,29.83,WSW,246,4.0,5.8,28,0.00,,---,0.00,VWS V14.01,2013-07-25 15:39:00,
2013-07-25 11:44:00,68.4,36.6,29.83,West,272,8.3,8.3,31,0.00,,---,0.00,VWS V14.01,2013-07-25 15:44:00,
2013-07-25 11:49:00,68.4,34.0,29.83,WNW,301,2.7,4.0,28,0.00,,---,0.00,VWS V14.01,2013-07-25 15:49:00,
2013-07-25 11:54:00,68.5,35.0,29.83,East,88,2.7,3.6,29,0.00,,---,0.00,VWS V14.01,2013-07-25 15:54:00,
2013-07-25 11:59:00,68.9,34.5,29.83,South,187,3.1,3.6,28,0.00,,---,0.00,VWS V14.01,2013-07-25 15:59:00,
2013-07-25 12:04:00,68.7,33.4,29.83,West,260,3.6,3.6,27,0.00,,---,0.00,VWS V14.01,2013-07-25 16:04:00,
2013-07-25 12:09:00,68.7,33.4,29.85,NNW,335,3.1,3.1,27,0.00,,---,0.00,VWS V14.01,2013-07-25 16:09:00,
2013-07-25 12:14:00,68.5,34.2,29.85,NNW,340,3.1,5.8,28,0.00,,---,0.00,VWS V14.01,2013-07-25 16:14:00,
2013-07-25 12:19:00,68.4,34.0,29.85,NNW,339,0.0,2.2,28,0.00,,---,0.00,VWS V14.01,2013-07-25 16:19:00,
2013-07-25 12:24:00,68.4,37.4,29.85,NNW,332,4.0,4.0,32,0.00,,---,0.00,VWS V14.01,2013-07-25 16:24:00,
2013-07-25 12:29:00,68.4,37.4,29.85,NNW,327,0.0,3.1,32,0.00,,---,0.00,VWS V14.01,2013-07-25 16:29:00,
2013-07-25 12:34:00,68.5,38.3,29.85,NW,324,5.4,5.4,33,0.00,,---,0.00,VWS V14.01,2013-07-25 16:34:00,
2013-07-25 12:39:00,68.9,35.4,29.85,NNE,33,2.7,3.6,29,0.00,,---,0.00,VWS V14.01,2013-07-25 16:39:00,
2013-07-25 12:44:00,69.6,35.1,29.85,NNE,28,2.2,2.7,28,0.00,,---,0.00,VWS V14.01,2013-07-25 16:44:00,
2013-07-25 12:49:00,69.8,31.4,29.85,North,349,4.9,4.9,24,0.00,,---,0.00,VWS V14.01,2013-07-25 16:49:00,
2013-07-25 12:54:00,69.6,33.2,29.85,West,274,8.7,8.7,26,0.00,,---,0.00,VWS V14.01,2013-07-25 16:54:00,
2013-07-25 12:59:00,69.6,33.2,29.85,North,0,0.0,3.1,26,0.00,,---,0.00,VWS V14.01,2013-07-25 16:59:00,
2013-07-25 13:04:00,69.3,32.9,29.85,West,265,3.1,5.4,26,0.00,,---,0.00,VWS V14.01,2013-07-25 17:04:00,
2013-07-25 13:09:00,69.6,34.2,29.85,North,0,3.6,4.9,27,0.00,,---,0.00,VWS V14.01,2013-07-25 17:09:00,
2013-07-25 13:14:00,69.8,33.4,29.85,NNE,27,2.7,3.1,26,0.00,,---,0.00,VWS V14.01,2013-07-25 17:14:00,
2013-07-25 13:19:00,70.0,33.5,29.85,NW,311,3.6,4.0,26,0.00,,---,0.00,VWS V14.01,2013-07-25 17:19:00,
2013-07-25 13:24:00,69.8,32.4,29.85,NW,308,3.1,3.6,25,0.00,,---,0.00,VWS V14.01,2013-07-25 17:24:00,
2013-07-25 13:29:00,69.6,32.3,29.85,SW,225,3.1,3.1,25,0.00,,---,0.00,VWS V14.01,2013-07-25 17:29:00,
2013-07-25 13:34:00,69.4,32.1,29.85,WSW,239,3.1,3.6,25,0.00,,---,0.00,VWS V14.01,2013-07-25 17:34:00,
2013-07-25 13:39:00,69.4,32.1,29.85,North,6,5.4,6.3,25,0.00,,---,0.00,VWS V14.01,2013-07-25 17:39:00,
2013-07-25 13:44:00,69.4,32.1,29.85,NNE,31,4.0,4.0,25,0.00,,---,0.00,VWS V14.01,2013-07-25 17:44:00,
2013-07-25 13:49:00,69.6,32.3,29.85,NE,42,3.1,3.6,25,0.00,,---,0.00,VWS V14.01,2013-07-25 17:49:00,
2013-07-25 13:54:00,69.8,34.3,29.85,North,4,4.0,4.0,27,0.00,,---,0.00,VWS V14.01,2013-07-25 17:54:00,
2013-07-25 13:59:00,69.6,31.3,29.85,NNW,337,3.6,5.8,24,0.00,,---,0.00,VWS V14.01,2013-07-25 17:59:00,
2013-07-25 14:04:00,69.8,33.4,29.85,NNE,30,3.6,6.3,26,0.00,,---,0.00,VWS V14.01,2013-07-25 18:04:00,
2013-07-25 14:09:00,69.8,31.4,29.85,NW,324,4.0,4.0,24,0.00,,---,0.00,VWS V14.01,2013-07-25 18:09:00,
2013-07-25 14:14:00,69.6,32.3,29.85,West,259,3.1,4.0,25,0.00,,---,0.00,VWS V14.01,2013-07-25 18:14:00,
2013-07-25 14:19:00,69.6,32.3,29.85,NW,322,7.2,7.2,25,0.00,,---,0.00,VWS V14.01,2013-07-25 18:19:00,
2013-07-25 14:24:00,69.4,33.1,29.85,NNW,332,2.7,2.7,26,0.00,,---,0.00,VWS V14.01,2013-07-25 18:24:00,
2013-07-25 14:29:00,69.4,32.1,29.85,West,281,2.7,3.6,25,0.00,,---,0.00,VWS V14.01,2013-07-25 18:29:00,
2013-07-25 14:34:00,69.4,32.1,29.85,NNW,329,3.1,5.4,25,0.00,,---,0.00,VWS V14.01,2013-07-25 18:34:00,
2013-07-25 14:39:00,69.4,33.1,29.85,NNE,22,2.7,3.6,26,0.00,,---,0.00,VWS V14.01,2013-07-25 18:39:00,
2013-07-25 14:44:00,69.6,32.3,29.85,WSW,245,2.7,3.1,25,0.00,,---,0.00,VWS V14.01,2013-07-25 18:44:00,
2013-07-25 14:49:00,70.0,31.6,29.85,North,6,0.0,5.4,24,0.00,,---,0.00,VWS V14.01,2013-07-25 18:49:00,
2013-07-25 14:54:00,70.3,30.8,29.85,WNW,287,6.3,6.3,23,0.00,,---,0.00,VWS V14.01,2013-07-25 18:54:00,
2013-07-25 14:59:00,70.9,31.3,29.85,NNW,333,5.4,5.4,23,0.00,,---,0.00,VWS V14.01,2013-07-25 18:59:00,
2013-07-25 15:04:00,71.1,31.4,29.85,West,259,0.0,3.6,23,0.00,,---,0.00,VWS V14.01,2013-07-25 19:04:00,
2013-07-25 15:09:00,71.4,32.8,29.85,NNE,25,3.6,3.6,24,0.00,,---,0.00,VWS V14.01,2013-07-25 19:09:00,
2013-07-25 15:14:00,71.6,30.8,29.85,West,268,2.7,2.7,22,0.00,,---,0.00,VWS V14.01,2013-07-25 19:14:00,
2013-07-25 15:19:00,71.8,30.9,29.85,North,353,2.2,2.2,22,0.00,,---,0.00,VWS V14.01,2013-07-25 19:19:00,
2013-07-25 15:24:00,71.8,32.0,29.85,WSW,239,3.1,3.1,23,0.00,,---,0.00,VWS V14.01,2013-07-25 19:24:00,
2013-07-25 15:29:00,71.2,31.6,29.85,NNW,333,0.0,0.0,23,0.00,,---,0.00,VWS V14.01,2013-07-25 19:29:00,
2013-07-25 15:34:00,71.2,31.6,29.85,SE,138,3.1,3.1,23,0.00,,---,0.00,VWS V14.01,2013-07-25 19:34:00,
2013-07-25 15:39:00,71.1,30.3,29.85,SSW,206,3.1,3.1,22,0.00,,---,0.00,VWS V14.01,2013-07-25 19:39:00,
2013-07-25 15:44:00,70.5,31.0,29.85,WNW,283,2.7,3.6,23,0.00,,---,0.00,VWS V14.01,2013-07-25 19:44:00,
2013-07-25 15:49:00,70.5,32.0,29.85,NW,311,5.4,5.4,24,0.00,,---,0.00,VWS V14.01,2013-07-25 19:49:00,
2013-07-25 15:54:00,70.3,30.8,29.85,NW,323,4.5,5.4,23,0.00,,---,0.00,VWS V14.01,2013-07-25 19:54:00,
2013-07-25 15:59:00,70.2,30.7,29.85,NW,308,2.7,3.1,23,0.00,,---,0.00,VWS V14.01,2013-07-25 19:59:00,
2013-07-25 16:04:00,70.2,32.7,29.85,North,353,3.1,3.1,25,0.00,,---,0.00,VWS V14.01,2013-07-25 20:04:00,
2013-07-25 16:09:00,70.2,31.7,29.85,WNW,283,3.6,4.0,24,0.00,,---,0.00,VWS V14.01,2013-07-25 20:09:00,
2013-07-25 16:14:00,70.2,32.7,29.85,NW,313,3.1,3.1,25,0.00,,---,0.00,VWS V14.01,2013-07-25 20:14:00,
2013-07-25 16:19:00,70.3,31.9,29.85,NE,51,0.0,0.0,24,0.00,,---,0.00,VWS V14.01,2013-07-25 20:19:00,
2013-07-25 16:24:00,70.7,33.2,29.85,NNW,335,0.0,0.0,25,0.00,,---,0.00,VWS V14.01,2013-07-25 20:24:00,
2013-07-25 16:29:00,70.7,32.2,29.85,NW,320,2.7,2.7,24,0.00,,---,0.00,VWS V14.01,2013-07-25 20:29:00,
2013-07-25 16:34:00,70.3,31.9,29.85,North,353,2.2,2.2,24,0.00,,---,0.00,VWS V14.01,2013-07-25 20:34:00,
2013-07-25 16:39:00,70.2,32.7,29.85,East,101,0.0,0.0,25,0.00,,---,0.00,VWS V14.01,2013-07-25 20:39:00,
2013-07-25 16:44:00,70.2,31.7,29.85,NW,306,6.3,6.3,24,0.00,,---,0.00,VWS V14.01,2013-07-25 20:44:00,
2013-07-25 16:49:00,70.0,32.6,29.85,NW,312,3.6,3.6,25,0.00,,---,0.00,VWS V14.01,2013-07-25 20:49:00,
2013-07-25 16:54:00,69.6,33.2,29.85,NNW,331,4.0,4.0,26,0.00,,---,0.00,VWS V14.01,2013-07-25 20:54:00,
2013-07-25 16:59:00,69.6,34.2,29.85,NNE,26,0.0,2.2,27,0.00,,---,0.00,VWS V14.01,2013-07-25 20:59:00,
2013-07-25 17:04:00,69.8,34.3,29.85,NNW,341,5.4,5.4,27,0.00,,---,0.00,VWS V14.01,2013-07-25 21:04:00,
2013-07-25 17:09:00,70.0,33.5,29.85,NW,307,2.2,3.6,26,0.00,,---,0.00,VWS V14.01,2013-07-25 21:09:00,
2013-07-25 17:14:00,69.6,32.3,29.85,East,89,2.2,5.4,25,0.00,,---,0.00,VWS V14.01,2013-07-25 21:14:00,
2013-07-25 17:19:00,69.4,33.1,29.85,North,357,4.0,6.3,26,0.00,,---,0.00,VWS V14.01,2013-07-25 21:19:00,
2013-07-25 17:24:00,69.6,32.3,29.85,NNE,16,3.1,3.1,25,0.00,,---,0.00,VWS V14.01,2013-07-25 21:24:00,
2013-07-25 17:29:00,69.4,31.1,29.85,WSW,254,2.7,4.0,24,0.00,,---,0.00,VWS V14.01,2013-07-25 21:29:00,
2013-07-25 17:34:00,69.6,34.2,29.85,North,357,3.6,5.4,27,0.00,,---,0.00,VWS V14.01,2013-07-25 21:34:00,
2013-07-25 17:39:00,69.1,32.8,29.85,NW,323,3.1,3.1,26,0.00,,---,0.00,VWS V14.01,2013-07-25 21:39:00,
2013-07-25 17:44:00,68.9,33.6,29.85,NW,308,0.0,0.0,27,0.00,,---,0.00,VWS V14.01,2013-07-25 21:44:00,
2013-07-25 17:49:00,69.1,34.6,29.85,NW,307,3.6,3.6,28,0.00,,---,0.00,VWS V14.01,2013-07-25 21:49:00,
2013-07-25 17:54:00,68.9,34.5,29.85,West,270,0.0,0.0,28,0.00,,---,0.00,VWS V14.01,2013-07-25 21:54:00,
2013-07-25 17:59:00,68.9,34.5,29.85,NW,317,0.0,2.7,28,0.00,,---,0.00,VWS V14.01,2013-07-25 21:59:00,
2013-07-25 18:04:00,68.9,34.5,29.85,NW,321,3.6,5.4,28,0.00,,---,0.00,VWS V14.01,2013-07-25 22:04:00,
2013-07-25 18:09:00,68.7,34.3,29.85,East,82,5.8,5.8,28,0.00,,---,0.00,VWS V14.01,2013-07-25 22:09:00,
2013-07-25 18:14:00,68.4,33.1,29.85,West,264,3.1,3.1,27,0.00,,---,0.00,VWS V14.01,2013-07-25 22:14:00,
2013-07-25 18:19:00,68.4,34.0,29.85,West,269,4.9,4.9,28,0.00,,---,0.00,VWS V14.01,2013-07-25 22:19:00,
2013-07-25 18:24:00,68.4,35.8,29.85,NW,310,0.0,0.0,30,0.00,,---,0.00,VWS V14.01,2013-07-25 22:24:00,
2013-07-25 18:29:00,68.2,34.7,29.85,North,353,3.1,5.4,29,0.00,,---,0.00,VWS V14.01,2013-07-25 22:29:00,
2013-07-25 18:34:00,68.0,35.4,29.85,NW,316,0.0,3.1,30,0.00,,---,0.00,VWS V14.01,2013-07-25 22:34:00,
2013-07-25 18:39:00,67.8,33.5,29.85,NNW,334,3.6,3.6,28,0.00,,---,0.00,VWS V14.01,2013-07-25 22:39:00,
2013-07-25 18:44:00,68.0,33.7,29.85,NW,306,0.0,0.0,28,0.00,,---,0.00,VWS V14.01,2013-07-25 22:44:00,
2013-07-25 18:49:00,68.0,35.4,29.85,WNW,302,2.7,3.6,30,0.00,,---,0.00,VWS V14.01,2013-07-25 22:49:00,
2013-07-25 18:54:00,67.8,36.9,29.85,ENE,64,0.0,0.0,32,0.00,,---,0.00,VWS V14.01,2013-07-25 22:54:00,
2013-07-25 18:59:00,67.6,35.1,29.85,WNW,303,2.7,3.6,30,0.00,,---,0.00,VWS V14.01,2013-07-25 22:59:00,
2013-07-25 19:05:00,67.5,35.0,29.85,NW,312,5.8,7.2,30,0.00,,---,0.00,VWS V14.01,2013-07-25 23:05:00,
2013-07-25 19:09:00,67.6,36.8,29.88,NW,318,3.1,4.9,32,0.00,,---,0.00,VWS V14.01,2013-07-25 23:09:00,
2013-07-25 19:15:00,67.5,37.4,29.88,North,349,4.0,4.0,33,0.00,,---,0.00,VWS V14.01,2013-07-25 23:15:00,
2013-07-25 19:20:00,67.5,37.4,29.88,North,2,2.7,2.7,33,0.00,,---,0.00,VWS V14.01,2013-07-25 23:20:00,
2013-07-25 19:25:00,67.5,37.4,29.88,NW,307,0.0,0.0,33,0.00,,---,0.00,VWS V14.01,2013-07-25 23:25:00,
2013-07-25 19:30:00,67.5,36.6,29.88,West,267,0.0,0.0,32,0.00,,---,0.00,VWS V14.01,2013-07-25 23:30:00,
2013-07-25 19:35:00,67.3,37.2,29.88,WNW,294,0.0,0.0,33,0.00,,---,0.00,VWS V14.01,2013-07-25 23:35:00,
2013-07-25 19:40:00,67.1,37.1,29.85,WNW,301,0.0,0.0,33,0.00,,---,0.00,VWS V14.01,2013-07-25 23:40:00,
2013-07-25 19:45:00,67.3,37.2,29.85,NW,310,0.0,2.7,33,0.00,,---,0.00,VWS V14.01,2013-07-25 23:45:00,
2013-07-25 19:50:00,67.1,36.3,29.85,NNW,329,2.7,2.7,32,0.00,,---,0.00,VWS V14.01,2013-07-25 23:50:00,
2013-07-25 19:55:00,66.9,36.9,29.85,NNW,327,6.3,6.3,33,0.00,,---,0.00,VWS V14.01,2013-07-25 23:55:00,
2013-07-25 20:00:00,66.9,36.9,29.85,WSW,250,3.1,6.7,33,0.00,,---,0.00,VWS V14.01,2013-07-26 00:00:00,
2013-07-25 20:05:00,66.7,36.8,29.85,SW,219,0.0,0.0,33,0.00,,---,0.00,VWS V14.01,2013-07-26 00:05:00,
2013-07-25 20:10:00,66.7,36.8,29.85,WNW,287,4.0,4.0,33,0.00,,---,0.00,VWS V14.01,2013-07-26 00:10:00,
2013-07-25 20:15:00,66.6,36.6,29.85,NW,311,2.7,5.4,33,0.00,,---,0.00,VWS V14.01,2013-07-26 00:15:00,
2013-07-25 20:20:00,66.6,36.6,29.85,NW,309,2.7,2.7,33,0.00,,---,0.00,VWS V14.01,2013-07-26 00:20:00,
2013-07-25 20:25:00,66.6,37.3,29.85,NNW,327,0.0,0.0,34,0.00,,---,0.00,VWS V14.01,2013-07-26 00:25:00,
2013-07-25 20:30:00,66.4,37.2,29.85,NW,315,2.2,3.6,34,0.00,,---,0.00,VWS V14.01,2013-07-26 00:30:00,
2013-07-25 20:35:00,66.4,37.2,29.85,NNE,12,0.0,0.0,34,0.00,,---,0.00,VWS V14.01,2013-07-26 00:35:00,
2013-07-25 20:40:00,66.2,37.0,29.85,WNW,297,0.0,0.0,34,0.00,,---,0.00,VWS V14.01,2013-07-26 00:40:00,
2013-07-25 20:45:00,66.2,37.0,29.85,West,278,2.7,2.7,34,0.00,,---,0.00,VWS V14.01,2013-07-26 00:45:00,
2013-07-25 20:50:00,66.0,36.9,29.85,SW,230,2.2,2.7,34,0.00,,---,0.00,VWS V14.01,2013-07-26 00:50:00,
2013-07-25 20:55:00,66.0,37.6,29.85,SW,235,0.0,0.0,35,0.00,,---,0.00,VWS V14.01,2013-07-26 00:55:00,
2013-07-25 21:00:00,66.2,37.8,29.85,SW,235,0.0,0.0,35,0.00,,---,0.00,VWS V14.01,2013-07-26 01:00:00,
2013-07-25 21:05:00,66.2,37.0,29.85,North,353,0.0,0.0,34,0.00,,---,0.00,VWS V14.01,2013-07-26 01:05:00,
2013-07-25 21:10:00,66.2,37.0,29.88,NNW,332,3.1,3.1,34,0.00,,---,0.00,VWS V14.01,2013-07-26 01:10:00,
2013-07-25 21:15:00,66.2,37.8,29.88,North,4,2.7,2.7,35,0.00,,---,0.00,VWS V14.01,2013-07-26 01:15:00,
2013-07-25 21:20:00,66.0,37.6,29.88,NW,322,2.2,3.6,35,0.00,,---,0.00,VWS V14.01,2013-07-26 01:20:00,
2013-07-25 21:25:00,65.8,38.9,29.88,NW,311,3.1,3.1,37,0.00,,---,0.00,VWS V14.01,2013-07-26 01:25:00,
2013-07-25 21:30:00,65.8,38.2,29.88,NW,314,3.1,3.1,36,0.00,,---,0.00,VWS V14.01,2013-07-26 01:30:00,
2013-07-25 21:35:00,65.8,38.9,29.88,NE,37,0.0,0.0,37,0.00,,---,0.00,VWS V14.01,2013-07-26 01:35:00,
2013-07-25 21:40:00,65.7,38.7,29.88,NW,322,2.7,3.1,37,0.00,,---,0.00,VWS V14.01,2013-07-26 01:40:00,
2013-07-25 21:45:00,65.7,39.4,29.88,NW,322,0.0,0.0,38,0.00,,---,0.00,VWS V14.01,2013-07-26 01:45:00,
2013-07-25 21:50:00,65.7,40.0,29.88,NW,325,0.0,0.0,39,0.00,,---,0.00,VWS V14.01,2013-07-26 01:50:00,
2013-07-25 21:55:00,65.7,38.0,29.88,NNW,335,3.1,6.7,36,0.00,,---,0.00,VWS V14.01,2013-07-26 01:55:00,
2013-07-25 22:00:00,65.7,38.7,29.88,NNW,335,3.1,3.6,37,0.00,,---,0.00,VWS V14.01,2013-07-26 02:00:00,
2013-07-25 22:05:00,65.5,39.2,29.88,NNW,348,0.0,0.0,38,0.00,,---,0.00,VWS V14.01,2013-07-26 02:05:00,
2013-07-25 22:10:00,65.5,38.5,29.88,NNW,348,0.0,0.0,37,0.00,,---,0.00,VWS V14.01,2013-07-26 02:10:00,
2013-07-25 22:15:00,65.5,39.2,29.88,SSW,212,2.2,2.2,38,0.00,,---,0.00,VWS V14.01,2013-07-26 02:15:00,
2013-07-25 22:20:00,65.7,40.0,29.88,SSW,212,0.0,0.0,39,0.00,,---,0.00,VWS V14.01,2013-07-26 02:20:00,
2013-07-25 22:25:00,65.7,39.4,29.88,NW,311,0.0,0.0,38,0.00,,---,0.00,VWS V14.01,2013-07-26 02:25:00,
2013-07-25 22:30:00,65.5,39.9,29.88,West,281,2.7,2.7,39,0.00,,---,0.00,VWS V14.01,2013-07-26 02:30:00,
2013-07-25 22:35:00,65.7,40.7,29.88,North,353,2.2,2.7,40,0.00,,---,0.00,VWS V14.01,2013-07-26 02:35:00,
2013-07-25 22:40:00,65.5,40.5,29.88,NW,322,0.0,0.0,40,0.00,,---,0.00,VWS V14.01,2013-07-26 02:40:00,
2013-07-25 22:45:00,65.5,39.2,29.88,ENE,65,2.7,2.7,38,0.00,,---,0.00,VWS V14.01,2013-07-26 02:45:00,
2013-07-25 22:50:00,65.5,40.5,29.88,NW,321,0.0,0.0,40,0.00,,---,0.00,VWS V14.01,2013-07-26 02:50:00,
2013-07-25 22:55:00,65.5,39.9,29.88,North,6,2.2,3.1,39,0.00,,---,0.00,VWS V14.01,2013-07-26 02:55:00,
2013-07-25 23:00:00,65.7,39.4,29.88,WSW,249,0.0,0.0,38,0.00,,---,0.00,VWS V14.01,2013-07-26 03:00:00,
2013-07-25 23:05:00,65.7,38.7,29.88,North,357,0.0,0.0,37,0.00,,---,0.00,VWS V14.01,2013-07-26 03:05:00,
2013-07-25 23:10:00,65.7,40.0,29.88,North,357,0.0,0.0,39,0.00,,---,0.00,VWS V14.01,2013-07-26 03:10:00,
2013-07-25 23:15:00,65.7,38.7,29.88,NNW,348,2.2,2.2,37,0.00,,---,0.00,VWS V14.01,2013-07-26 03:15:00,
2013-07-25 23:20:00,65.7,38.7,29.88,NNE,16,0.0,0.0,37,0.00,,---,0.00,VWS V14.01,2013-07-26 03:20:00,
2013-07-25 23:25:00,65.7,38.7,29.88,WNW,298,0.0,0.0,37,0.00,,---,0.00,VWS V14.01,2013-07-26 03:25:00,
2013-07-25 23:30:00,65.7,38.0,29.88,WSW,247,0.0,3.1,36,0.00,,---,0.00,VWS V14.01,2013-07-26 03:30:00,
2013-07-25 23:35:00,65.5,37.8,29.88,WNW,302,0.0,0.0,36,0.00,,---,0.00,VWS V14.01,2013-07-26 03:35:00,
2013-07-25 23:40:00,65.5,38.5,29.88,North,349,2.7,2.7,37,0.00,,---,0.00,VWS V14.01,2013-07-26 03:40:00,
2013-07-25 23:45:00,65.5,38.5,29.88,North,349,0.0,0.0,37,0.00,,---,0.00,VWS V14.01,2013-07-26 03:45:00,
2013-07-25 23:50:00,65.5,38.5,29.88,North,11,0.0,0.0,37,0.00,,---,0.00,VWS V14.01,2013-07-26 03:50:00,
2013-07-25 23:55:00,65.3,38.4,29.85,WNW,297,0.0,0.0,37,0.00,,---,0.00,VWS V14.01,2013-07-26 03:55:00,